Regional Weather Roundup
Issued by NWS State College, PA

Home | Current Version | Previous Version | Text Only | Print | Product List | Glossary On
Versions: 1 2 3 4 5 6 7 8 9 10 11 12 13 14 15 16 17 18 19 20 21 22 23 24 25 26 27 28 29 30 31 32 33 34 35 36 37 38 39 40 41 42 43 44 45 46 47 48 49 50
000
ASUS41 KCTP 230310
RWRCTP

REGIONAL WEATHER ROUNDUP
NATIONAL WEATHER SERVICE STATE COLLEGE PA
1100 PM EDT MON MAY 22 2017

Note: "fair" indicates few or no clouds below 12,000 feet with no
significant weather and/or obstructions to visibility.

* = STATION THAT DOES NOT REPORT PRECIPITATION /E.G. RAIN...SNOW...ETC/
    THUNDER OR FOG.

PAZ002>004-007>009-013>016-020>023-029>032-230400-
WESTERN PENNSYLVANIA

CITY           SKY/WX    TMP DP  RH WIND       PRES   REMARKS
ERIE           CLEAR     54  44  69 S7        30.01R
MEADVILLE      CLEAR     53  45  74 S3        30.04R
FRANKLIN*      CLEAR     50  43  76 SW5       30.05S
NEW CASTLE     FAIR      51  49  92 S3        30.05F
BEAVER COUNTY  NOT AVBL
BUTLER*        CLEAR     52  46  82 CALM      30.06S
PITTSBURGH INT PTCLDY    56  49  77 CALM      30.04F
PITTSBURGH     CLOUDY    59  43  55 W3        30.04F
INDIANA*       NOT AVBL
LATROBE        CLOUDY    55  50  82 CALM      30.06F
WASHINGTON CO* CLOUDY    48  46  93 CALM      30.06F
$$

PAZ004>006-010>012-017>019-024>028-033>037-041-042-045-046-049>053-230400-
CENTRAL PENNSYLVANIA

CITY           SKY/WX    TMP DP  RH WIND       PRES   REMARKS
BRADFORD       CLOUDY    46  44  93 CALM      30.04R
DUBOIS         PTCLDY    50  43  77 W3        30.04R
CLEARFIELD     PTCLDY    52  47  83 W3        30.05R
JOHNSTOWN      PTCLDY    52  46  80 W7        30.07R
ALTOONA        CLEAR     53  48  83 CALM      30.06R
STATE COLLEGE  PTCLDY    56  46  69 SW7       30.03R
WILLIAMSPORT   CLOUDY    57  56  96 CALM      29.99R
SELINSGROVE    CLOUDY    58  57  97 CALM      30.00R
FT INDIANTOWN  CLOUDY    58  58 100 CALM      29.99S
CAPITAL CITY   CLOUDY    60  57  89 CALM      29.98F FOG
HARRISBURG     CLOUDY    61  59  93 CALM      29.98S
YORK           CLOUDY    61  61 100 CALM      29.98F
$$

PAZ038>040-043-044-047-048-054-055-060>062-067>071-230400-
EASTERN PENNSYLVANIA

CITY           SKY/WX    TMP DP  RH WIND       PRES   REMARKS
SCRANTON       CLOUDY    60  56  86 SW5       29.98S
MOUNT POCONO   FOG       53  53 100 W10       30.00R VSB 3/4
ALLENTOWN      CLOUDY    61  57  87 W5        29.99S
QUAKERTOWN*    CLOUDY    59  59 100 CALM      29.99F
READING        CLOUDY    62  61  96 CALM      29.98F
LANCASTER      CLOUDY    62  62 100 CALM      29.99S FOG
COATESVILLE    CLOUDY    63  61  94 NW5       30.01S FOG
POTTSTOWN      CLOUDY    61  59  93 CALM      30.00S FOG
BLUE BELL      CLOUDY    61  61 100 NW3       29.99S
DOYLESTOWN     CLOUDY    61  61 100 W3        29.97F
WILLOW GROVE   NOT AVBL
NORTH PHILA    CLOUDY    65  62  90 NW5       29.97F
PHILADELPHIA   CLOUDY    65  61  87 VRB6      29.97F
$$



USA.gov is the U.S. government's official web portal to all federal, state and local government web resources and services.